Springfield, OH

12:15 PM EDT on June 25, 2017 (GMT -0400)
Springfield-Beckley Municipal

Weather History for KSGH - December, 2011

Change the Weather History Date:

Saturday, December 24, 2011

  Actual Average (KFFO) Record (KFFO)
Temperature  
Mean Temperature 30 °F -  
Max Temperature 37 °F 35 °F 57 °F (2015)
Min Temperature 24 °F 20 °F -7 °F (2004)
Degree Days  
Heating Degree Days 34    
Moisture  
Dew Point 26 °F    
Average Humidity 83    
Maximum Humidity 100    
Minimum Humidity 62    
Precipitation  
Precipitation 0.00 in - - ()
Sea Level Pressure  
Sea Level Pressure 30.38 in    
Wind  
Wind Speed 7 mph (SW)    
Max Wind Speed 12 mph    
Max Gust Speed -    
Visibility 8 miles    
Events      
Averages and records for this station are not official NWS values.
T = Trace of Precipitation, MM = Missing Value Source: NWS Daily Summary

Daily Weather History Graph

Daily Weather History Graph

Search for Another Location

Airport or City:

Trip Planner

Search our weather history database for the weather conditions in past years. The results will help you decide how hot, cold, wet, or windy it might be!

Date:

Astronomy

Dec. 24, 2011 Rise Set
Actual Time 7:54 AM EST 5:15 PM EST
Civil Twilight 7:23 AM EST 5:45 PM EST
Nautical Twilight 6:49 AM EST 6:19 PM EST
Astronomical Twilight 6:17 AM EST 6:52 PM EST
Moon 7:41 AM EST (12/24) 5:27 PM EST (12/24)
Length of Visible Light 10h 21m
Length of Day
9h 20m
Waning Crescent, 0% of the Moon is Illuminated
Dec 24
Waning Crescent
Dec 24
New
Jan 1
First Quarter
Jan 9
Full
Jan 16
Last Quarter

Hourly Weather History & Observations

Time (EST) Temp. Windchill Dew Point Humidity Pressure Visibility Wind Dir Wind Speed Gust Speed Precip Events Conditions
12:56 AM 29.1 °F 23.0 °F 29.1 °F 100% 30.33 in 6.0 mi SSW 5.8 mph - N/A   Partly Cloudy
1:56 AM 30.0 °F 21.7 °F 27.1 °F 89% 30.34 in 8.0 mi WSW 9.2 mph - N/A   Clear
2:56 AM 30.0 °F 21.7 °F 27.1 °F 89% 30.36 in 8.0 mi West 9.2 mph - N/A   Scattered Clouds
4:04 AM 28.4 °F 20.4 °F 26.6 °F 93% 30.36 in 8.0 mi West 8.1 mph - N/A   Scattered Clouds
4:56 AM 29.1 °F 21.3 °F 26.1 °F 88% 30.40 in 8.0 mi West 8.1 mph - N/A   Mostly Cloudy
5:36 AM 28.4 °F 23.3 °F 26.6 °F 93% 30.38 in 8.0 mi West 4.6 mph - N/A   Overcast
5:56 AM 28.0 °F 21.7 °F 25.2 °F 89% 30.42 in 8.0 mi WSW 5.8 mph - N/A   Mostly Cloudy
6:14 AM 26.6 °F 20.0 °F 24.8 °F 93% 30.38 in 8.0 mi West 5.8 mph - N/A   Partly Cloudy
6:56 AM 26.1 °F 18.4 °F 23.0 °F 88% 30.43 in 8.0 mi West 6.9 mph - N/A   Clear
7:56 AM 24.1 °F 19.7 °F 23.0 °F 96% 30.44 in 6.0 mi SW 3.5 mph - N/A   Clear
8:56 AM 28.0 °F 21.7 °F 26.1 °F 92% 30.45 in 6.0 mi SSW 5.8 mph - N/A   Clear
9:56 AM 30.0 °F 22.4 °F 27.1 °F 89% 30.47 in 6.0 mi SW 8.1 mph - N/A   Clear
10:56 AM 32.0 °F 27.5 °F 26.1 °F 79% 30.45 in 7.0 mi South 4.6 mph - N/A   Partly Cloudy
11:29 AM 33.8 °F 25.3 °F 26.6 °F 75% 30.40 in 7.0 mi South 11.5 mph - N/A   Mostly Cloudy
11:45 AM 33.8 °F 26.4 °F 26.6 °F 75% 30.40 in 7.0 mi SSW 9.2 mph - N/A   Scattered Clouds
11:56 AM 32.0 °F 23.6 °F 27.1 °F 82% 30.43 in 7.0 mi SW 10.4 mph - N/A   Partly Cloudy
12:56 PM 34.9 °F 29.0 °F 26.1 °F 70% 30.39 in 8.0 mi SW 6.9 mph - N/A   Clear
1:56 PM 36.9 °F 29.1 °F 27.1 °F 68% 30.38 in 8.0 mi SW 11.5 mph - N/A   Clear
2:56 PM 37.9 °F 30.5 °F 26.1 °F 62% 30.36 in 8.0 mi SW 11.5 mph - N/A   Clear
3:56 PM 37.9 °F 31.5 °F 27.1 °F 65% 30.36 in 8.0 mi SSW 9.2 mph - N/A   Clear
4:56 PM 36.0 °F 29.6 °F 25.2 °F 65% 30.36 in 8.0 mi SSW 8.1 mph - N/A   Clear
5:56 PM 32.9 °F 26.7 °F 25.2 °F 73% 30.35 in 9.0 mi SSW 6.9 mph - N/A   Clear
6:56 PM 31.1 °F 26.4 °F 25.2 °F 79% 30.37 in 9.0 mi SSW 4.6 mph - N/A   Clear
7:56 PM 31.1 °F 25.4 °F 25.2 °F 79% 30.36 in 9.0 mi SSW 5.8 mph - N/A   Clear
8:56 PM 28.0 °F 21.7 °F 25.2 °F 89% 30.35 in 9.0 mi South 5.8 mph - N/A   Clear
9:56 PM 29.1 °F 23.0 °F 25.2 °F 85% 30.35 in 9.0 mi SSW 5.8 mph - N/A   Clear
10:56 PM 30.0 °F 22.4 °F 25.2 °F 82% 30.33 in 8.0 mi SSW 8.1 mph - N/A   Clear
11:56 PM 28.0 °F 21.7 °F 24.1 °F 85% 30.33 in 8.0 mi SW 5.8 mph - N/A   Clear